date,time,SUV Intensity [MED/Hr],UV Index,Daily total [MED],Since Last [MED]
19/07/2023,23:59:08,-0.000,0.0,10.166,10.166
20/07/2023,00:00:08,-0.000,0.0,0.0,-10.166
20/07/2023,00:01:08,0.000,0.0,0.0,0.0
20/07/2023,00:02:08,0.000,0.0,0.0,0.0
20/07/2023,00:03:08,0.001,0.0,0.0,0.0
20/07/2023,00:04:08,0.000,0.0,0.0,0.0
20/07/2023,00:05:08,-0.001,0.0,0.0,0.0
20/07/2023,00:06:08,0.000,0.0,0.0,0.0
20/07/2023,00:07:08,0.000,0.0,0.0,0.0
20/07/2023,00:08:08,0.000,0.0,0.0,0.0
20/07/2023,00:09:08,0.000,0.0,0.0,0.0
20/07/2023,00:10:08,0.000,0.0,0.0,0.0
20/07/2023,00:11:08,0.000,0.0,0.0,0.0
20/07/2023,00:12:08,0.001,0.0,0.0,0.0
20/07/2023,00:13:08,0.000,0.0,0.0,0.0
20/07/2023,00:14:08,0.000,0.0,0.0,0.0
20/07/2023,00:15:09,0.000,0.0,0.0,0.0
20/07/2023,00:16:08,0.001,0.0,0.0,0.0
20/07/2023,00:17:08,0.000,0.0,0.0,0.0
20/07/2023,00:18:08,-0.000,0.0,0.0,0.0
20/07/2023,00:19:09,0.000,0.0,0.0,0.0
20/07/2023,00:20:08,0.000,0.0,0.0,0.0
20/07/2023,00:21:08,-0.000,0.0,0.0,0.0
20/07/2023,00:22:09,0.000,0.0,0.0,0.0
20/07/2023,00:23:08,0.001,0.0,0.0,0.0
20/07/2023,00:24:09,0.000,0.0,0.0,0.0
20/07/2023,00:25:08,0.001,0.0,0.0,0.0
20/07/2023,00:26:09,0.000,0.0,0.0,0.0
20/07/2023,00:27:08,0.000,0.0,0.0,0.0
20/07/2023,00:28:08,0.001,0.0,0.0,0.0
20/07/2023,00:29:08,0.001,0.0,0.0,0.0
20/07/2023,00:30:08,0.001,0.0,0.0,0.0
20/07/2023,00:31:08,0.001,0.0,0.0,0.0
20/07/2023,00:32:09,0.000,0.0,0.0,0.0
20/07/2023,00:33:08,0.001,0.0,0.0,0.0
20/07/2023,00:34:08,0.000,0.0,0.0,0.0
20/07/2023,00:35:08,0.001,0.0,0.0,0.0
20/07/2023,00:36:09,0.001,0.0,0.0,0.0
20/07/2023,00:37:08,0.001,0.0,0.0,0.0
20/07/2023,00:38:08,-0.000,0.0,0.0,0.0
20/07/2023,00:39:08,0.001,0.0,0.0,0.0
20/07/2023,00:40:08,0.001,0.0,0.0,0.0
20/07/2023,00:41:08,0.001,0.0,0.0,0.0
20/07/2023,00:42:08,0.002,0.0,0.0,0.0
20/07/2023,00:43:08,0.001,0.0,0.0,0.0
20/07/2023,00:44:09,0.001,0.0,0.0,0.0
20/07/2023,00:45:09,0.001,0.0,0.0,0.0
20/07/2023,00:46:08,0.001,0.0,0.0,0.0
20/07/2023,00:47:08,0.000,0.0,0.0,0.0
20/07/2023,00:48:08,-0.000,0.0,0.0,0.0
20/07/2023,00:49:09,0.001,0.0,0.0,0.0
20/07/2023,00:50:08,0.001,0.0,0.0,0.0
20/07/2023,00:51:09,-0.000,0.0,0.0,0.0
20/07/2023,00:52:08,0.001,0.0,0.0,0.0
20/07/2023,00:53:09,0.001,0.0,0.0,0.0
20/07/2023,00:54:08,0.000,0.0,0.0,0.0
20/07/2023,00:55:09,0.001,0.0,0.0,0.0
20/07/2023,00:56:09,0.001,0.0,0.0,0.0
20/07/2023,00:57:08,0.000,0.0,0.0,0.0
20/07/2023,00:58:08,0.001,0.0,0.0,0.0
20/07/2023,00:59:08,0.001,0.0,0.0,0.0
20/07/2023,01:00:08,0.000,0.0,0.0,0.0
20/07/2023,01:01:08,0.001,0.0,0.0,0.0
20/07/2023,01:02:09,0.002,0.0,0.0,0.0
20/07/2023,01:03:08,0.001,0.0,0.0,0.0
20/07/2023,01:04:09,0.001,0.0,0.0,0.0
20/07/2023,01:05:08,0.001,0.0,0.0,0.0
20/07/2023,01:06:09,0.001,0.0,0.0,0.0
20/07/2023,01:07:08,0.002,0.0,0.0,0.0
20/07/2023,01:08:09,0.001,0.0,0.0,0.0
20/07/2023,01:09:08,0.002,0.0,0.0,0.0
20/07/2023,01:10:09,0.001,0.0,0.0,0.0
20/07/2023,01:11:08,0.001,0.0,0.0,0.0
20/07/2023,01:12:08,0.001,0.0,0.0,0.0
20/07/2023,01:13:09,0.000,0.0,0.0,0.0
20/07/2023,01:14:08,0.001,0.0,0.0,0.0
20/07/2023,01:15:08,0.002,0.0,0.0,0.0
20/07/2023,01:16:09,0.001,0.0,0.0,0.0
20/07/2023,01:17:09,0.001,0.0,0.0,0.0
20/07/2023,01:18:08,0.001,0.0,0.0,0.0
20/07/2023,01:19:08,0.001,0.0,0.0,0.0
20/07/2023,01:20:09,0.001,0.0,0.0,0.0
20/07/2023,01:21:08,0.000,0.0,0.0,0.0
20/07/2023,01:22:08,0.001,0.0,0.0,0.0
20/07/2023,01:23:09,0.000,0.0,0.0,0.0
20/07/2023,01:24:08,0.001,0.0,0.0,0.0
20/07/2023,01:25:09,0.001,0.0,0.0,0.0
20/07/2023,01:26:08,0.000,0.0,0.0,0.0
20/07/2023,01:27:08,0.000,0.0,0.0,0.0
20/07/2023,01:28:08,0.001,0.0,0.0,0.0
20/07/2023,01:29:08,0.001,0.0,0.0,0.0
20/07/2023,01:30:09,0.002,0.0,0.0,0.0
20/07/2023,01:31:08,0.001,0.0,0.0,0.0
20/07/2023,01:32:09,0.001,0.0,0.0,0.0
20/07/2023,01:33:08,0.000,0.0,0.0,0.0
20/07/2023,01:34:08,0.001,0.0,0.0,0.0
20/07/2023,01:35:08,0.001,0.0,0.0,0.0
20/07/2023,01:36:08,0.001,0.0,0.0,0.0
20/07/2023,01:37:08,0.001,0.0,0.0,0.0
20/07/2023,01:38:09,0.001,0.0,0.0,0.0
20/07/2023,01:39:08,0.001,0.0,0.0,0.0
20/07/2023,01:40:08,0.000,0.0,0.0,0.0
20/07/2023,01:41:08,0.001,0.0,0.0,0.0
20/07/2023,01:42:08,0.002,0.0,0.0,0.0
20/07/2023,01:43:08,0.002,0.0,0.0,0.0
20/07/2023,01:44:09,0.001,0.0,0.0,0.0
20/07/2023,01:45:08,0.000,0.0,0.0,0.0
20/07/2023,01:46:08,0.000,0.0,0.0,0.0
20/07/2023,01:47:08,0.001,0.0,0.0,0.0
20/07/2023,01:48:08,0.001,0.0,0.0,0.0
20/07/2023,01:49:09,0.002,0.0,0.0,0.0
20/07/2023,01:50:08,0.001,0.0,0.0,0.0
20/07/2023,01:51:08,0.001,0.0,0.0,0.0
20/07/2023,01:52:09,0.002,0.0,0.0,0.0
20/07/2023,01:53:08,0.001,0.0,0.0,0.0
20/07/2023,01:54:08,0.001,0.0,0.0,0.0
20/07/2023,01:55:08,0.001,0.0,0.0,0.0
20/07/2023,01:56:09,0.000,0.0,0.0,0.0
20/07/2023,01:57:08,0.001,0.0,0.0,0.0
20/07/2023,01:58:09,0.001,0.0,0.0,0.0
20/07/2023,01:59:07,0.001,0.0,0.0,0.0
20/07/2023,02:00:08,0.001,0.0,0.0,0.0
20/07/2023,02:01:08,0.001,0.0,0.0,0.0
20/07/2023,02:02:08,0.000,0.0,0.0,0.0
20/07/2023,02:03:08,0.001,0.0,0.0,0.0
20/07/2023,02:04:08,0.001,0.0,0.0,0.0
20/07/2023,02:05:09,0.001,0.0,0.0,0.0
20/07/2023,02:06:08,0.001,0.0,0.0,0.0
20/07/2023,02:07:08,0.001,0.0,0.0,0.0
20/07/2023,02:08:09,0.000,0.0,0.0,0.0
20/07/2023,02:09:09,0.001,0.0,0.0,0.0
20/07/2023,02:10:08,0.001,0.0,0.0,0.0
20/07/2023,02:11:09,0.001,0.0,0.0,0.0
20/07/2023,02:12:08,0.002,0.0,0.0,0.0
20/07/2023,02:13:10,0.000,0.0,0.0,0.0
20/07/2023,02:14:09,0.001,0.0,0.0,0.0
20/07/2023,02:15:09,0.000,0.0,0.0,0.0
20/07/2023,02:16:09,0.001,0.0,0.0,0.0
20/07/2023,02:17:08,0.001,0.0,0.0,0.0
20/07/2023,02:18:08,0.000,0.0,0.0,0.0
20/07/2023,02:19:09,0.002,0.0,0.0,0.0
20/07/2023,02:20:08,0.002,0.0,0.0,0.0
20/07/2023,02:21:39,0.001,0.0,0.0,0.0
20/07/2023,02:23:09,0.001,0.0,0.0,0.0
20/07/2023,02:24:08,0.000,0.0,0.0,0.0
20/07/2023,02:25:08,0.001,0.0,0.0,0.0
20/07/2023,02:26:08,0.001,0.0,0.0,0.0
20/07/2023,02:27:08,0.000,0.0,0.0,0.0
20/07/2023,02:28:09,0.001,0.0,0.0,0.0
20/07/2023,02:29:08,0.001,0.0,0.0,0.0
20/07/2023,02:30:09,0.000,0.0,0.0,0.0
20/07/2023,02:31:08,0.001,0.0,0.0,0.0
20/07/2023,02:32:08,0.001,0.0,0.0,0.0
20/07/2023,02:33:09,0.000,0.0,0.0,0.0
20/07/2023,02:34:09,0.001,0.0,0.0,0.0
20/07/2023,02:35:08,0.002,0.0,0.0,0.0
20/07/2023,02:36:08,0.000,0.0,0.0,0.0
20/07/2023,02:37:08,0.001,0.0,0.0,0.0
20/07/2023,02:38:09,0.000,0.0,0.0,0.0
20/07/2023,02:39:09,0.002,0.0,0.0,0.0
20/07/2023,02:40:08,0.001,0.0,0.0,0.0
20/07/2023,02:41:09,0.001,0.0,0.0,0.0
20/07/2023,02:42:09,0.001,0.0,0.0,0.0
20/07/2023,02:43:08,0.000,0.0,0.0,0.0
20/07/2023,02:44:09,0.001,0.0,0.0,0.0
20/07/2023,02:45:08,0.001,0.0,0.0,0.0
20/07/2023,02:46:09,0.002,0.0,0.0,0.0
20/07/2023,02:47:08,0.001,0.0,0.0,0.0
20/07/2023,02:48:09,0.001,0.0,0.0,0.0
20/07/2023,02:49:09,0.002,0.0,0.0,0.0
20/07/2023,02:50:08,0.000,0.0,0.0,0.0
20/07/2023,02:51:09,0.001,0.0,0.0,0.0
20/07/2023,02:52:08,0.001,0.0,0.0,0.0
20/07/2023,02:53:09,0.001,0.0,0.0,0.0
20/07/2023,02:54:08,0.001,0.0,0.0,0.0
20/07/2023,02:55:09,0.002,0.0,0.0,0.0
20/07/2023,02:56:07,0.001,0.0,0.0,0.0
20/07/2023,02:57:09,0.001,0.0,0.0,0.0
20/07/2023,02:58:09,0.001,0.0,0.0,0.0
20/07/2023,02:59:08,0.001,0.0,0.0,0.0
20/07/2023,03:00:09,0.001,0.0,0.0,0.0
20/07/2023,03:01:08,0.001,0.0,0.0,0.0
20/07/2023,03:02:09,0.001,0.0,0.0,0.0
20/07/2023,03:03:09,0.002,0.0,0.0,0.0
20/07/2023,03:04:08,0.001,0.0,0.0,0.0
20/07/2023,03:05:08,0.002,0.0,0.0,0.0
20/07/2023,03:06:08,0.001,0.0,0.0,0.0
20/07/2023,03:07:09,0.003,0.0,0.0,0.0
20/07/2023,03:08:08,0.001,0.0,0.0,0.0
20/07/2023,03:09:08,0.001,0.0,0.0,0.0
20/07/2023,03:10:08,0.001,0.0,0.0,0.0
20/07/2023,03:11:09,0.000,0.0,0.0,0.0
20/07/2023,03:12:08,0.002,0.0,0.0,0.0
20/07/2023,03:13:09,0.001,0.0,0.0,0.0
20/07/2023,03:14:08,0.002,0.0,0.0,0.0
20/07/2023,03:15:08,0.002,0.0,0.0,0.0
20/07/2023,03:16:09,0.001,0.0,0.0,0.0
20/07/2023,03:17:08,0.002,0.0,0.0,0.0
20/07/2023,03:18:09,0.001,0.0,0.0,0.0
20/07/2023,03:19:08,0.001,0.0,0.0,0.0
20/07/2023,03:20:08,0.001,0.0,0.0,0.0
20/07/2023,03:21:09,0.002,0.0,0.0,0.0
20/07/2023,03:22:08,0.001,0.0,0.0,0.0
20/07/2023,03:23:08,0.001,0.0,0.0,0.0
20/07/2023,03:24:09,0.001,0.0,0.0,0.0
20/07/2023,03:25:09,0.001,0.0,0.0,0.0
20/07/2023,03:26:09,0.001,0.0,0.0,0.0
20/07/2023,03:27:08,0.000,0.0,0.0,0.0
20/07/2023,03:28:09,0.002,0.0,0.0,0.0
20/07/2023,03:29:08,0.002,0.0,0.0,0.0
20/07/2023,03:30:08,0.000,0.0,0.0,0.0
20/07/2023,03:31:09,0.001,0.0,0.0,0.0
20/07/2023,03:32:08,0.001,0.0,0.0,0.0
20/07/2023,03:33:08,0.001,0.0,0.0,0.0
20/07/2023,03:34:08,0.001,0.0,0.0,0.0
20/07/2023,03:35:09,0.000,0.0,0.0,0.0
20/07/2023,03:36:09,0.001,0.0,0.0,0.0
20/07/2023,03:37:10,0.002,0.0,0.0,0.0
20/07/2023,03:38:09,0.002,0.0,0.0,0.0
20/07/2023,03:39:08,0.002,0.0,0.0,0.0
20/07/2023,03:40:09,0.001,0.0,0.0,0.0
20/07/2023,03:41:08,0.002,0.0,0.0,0.0
20/07/2023,03:42:09,0.002,0.0,0.0,0.0
20/07/2023,03:43:09,0.001,0.0,0.0,0.0
20/07/2023,03:44:08,0.001,0.0,0.0,0.0
20/07/2023,03:45:09,0.002,0.0,0.0,0.0
20/07/2023,03:46:09,0.002,0.0,0.0,0.0
20/07/2023,03:47:08,0.002,0.0,0.0,0.0
20/07/2023,03:48:09,0.002,0.0,0.0,0.0
20/07/2023,03:49:08,0.003,0.0,0.0,0.0
20/07/2023,03:50:09,0.001,0.0,0.0,0.0
20/07/2023,03:51:09,0.002,0.0,0.0,0.0
20/07/2023,03:52:08,0.002,0.0,0.0,0.0
20/07/2023,03:53:09,0.002,0.0,0.0,0.0
20/07/2023,03:54:09,0.002,0.0,0.0,0.0
20/07/2023,03:55:08,0.001,0.0,0.0,0.0
20/07/2023,03:56:09,0.002,0.0,0.0,0.0
20/07/2023,03:57:09,0.003,0.0,0.0,0.0
20/07/2023,03:58:09,0.002,0.0,0.0,0.0
20/07/2023,03:59:08,0.002,0.0,0.0,0.0
20/07/2023,04:00:09,0.002,0.0,0.0,0.0
20/07/2023,04:01:10,0.001,0.0,0.0,0.0
20/07/2023,04:02:08,0.003,0.0,0.0,0.0
20/07/2023,04:03:08,0.003,0.0,0.0,0.0
20/07/2023,04:04:12,0.003,0.0,0.0,0.0
20/07/2023,04:05:10,0.003,0.0,0.0,0.0
20/07/2023,04:06:09,0.003,0.0,0.0,0.0
20/07/2023,04:07:09,0.003,0.0,0.0,0.0
20/07/2023,04:08:09,0.003,0.0,0.0,0.0
20/07/2023,04:09:09,0.004,0.0,0.0,0.0
20/07/2023,04:10:09,0.003,0.0,0.0,0.0
20/07/2023,04:11:08,0.004,0.0,0.0,0.0
20/07/2023,04:12:08,0.004,0.0,0.0,0.0
20/07/2023,04:13:09,0.004,0.0,0.0,0.0
20/07/2023,04:14:08,0.004,0.0,0.0,0.0
20/07/2023,04:15:08,0.005,0.0,0.0,0.0
20/07/2023,04:16:09,0.005,0.0,0.0,0.0
20/07/2023,04:17:08,0.005,0.0,0.0,0.0
20/07/2023,04:18:08,0.005,0.0,0.0,0.0
20/07/2023,04:19:09,0.005,0.0,0.0,0.0
20/07/2023,04:20:08,0.006,0.0,0.0,0.0
20/07/2023,04:21:08,0.006,0.0,0.0,0.0
20/07/2023,04:22:09,0.006,0.0,0.0,0.0
20/07/2023,04:23:08,0.006,0.0,0.0,0.0
20/07/2023,04:24:08,0.006,0.0,0.0,0.0
20/07/2023,04:25:10,0.006,0.0,0.0,0.0
20/07/2023,04:26:10,0.007,0.0,0.0,0.0
20/07/2023,04:27:08,0.007,0.0,0.0,0.0
20/07/2023,04:28:09,0.008,0.0,0.001,0.001
20/07/2023,04:29:08,0.008,0.0,0.001,0.0
20/07/2023,04:30:09,0.008,0.0,0.001,0.0
20/07/2023,04:31:08,0.008,0.0,0.001,0.0
20/07/2023,04:32:09,0.009,0.0,0.001,0.0
20/07/2023,04:33:08,0.009,0.0,0.001,0.0
20/07/2023,04:34:09,0.009,0.0,0.001,0.0
20/07/2023,04:35:09,0.009,0.0,0.002,0.001
20/07/2023,04:36:09,0.009,0.0,0.002,0.0
20/07/2023,04:37:08,0.011,0.0,0.002,0.0
20/07/2023,04:38:09,0.011,0.0,0.002,0.0
20/07/2023,04:39:09,0.010,0.0,0.002,0.0
20/07/2023,04:40:09,0.011,0.0,0.002,0.0
20/07/2023,04:41:08,0.011,0.0,0.003,0.001
20/07/2023,04:42:09,0.012,0.0,0.003,0.0
20/07/2023,04:43:09,0.012,0.0,0.003,0.0
20/07/2023,04:44:09,0.013,0.0,0.003,0.0
20/07/2023,04:45:09,0.014,0.0,0.003,0.0
20/07/2023,04:46:08,0.014,0.0,0.004,0.001
20/07/2023,04:47:09,0.014,0.0,0.004,0.0
20/07/2023,04:48:08,0.015,0.0,0.004,0.0
20/07/2023,04:49:09,0.015,0.0,0.004,0.0
20/07/2023,04:50:08,0.016,0.0,0.005,0.001
20/07/2023,04:51:09,0.016,0.0,0.005,0.0
20/07/2023,04:52:09,0.017,0.0,0.005,0.0
20/07/2023,04:53:08,0.017,0.0,0.005,0.0
20/07/2023,04:54:09,0.018,0.0,0.006,0.001
20/07/2023,04:55:08,0.019,0.0,0.006,0.0
20/07/2023,04:56:09,0.019,0.0,0.006,0.0
20/07/2023,04:57:08,0.019,0.0,0.007,0.001
20/07/2023,04:58:09,0.020,0.0,0.007,0.0
20/07/2023,04:59:08,0.021,0.0,0.007,0.0
20/07/2023,05:00:09,0.021,0.0,0.008,0.001
20/07/2023,05:01:09,0.021,0.0,0.008,0.0
20/07/2023,05:02:08,0.022,0.0,0.008,0.0
20/07/2023,05:03:09,0.023,0.0,0.009,0.001
20/07/2023,05:04:09,0.025,0.0,0.009,0.0
20/07/2023,05:05:08,0.025,0.0,0.01,0.001
20/07/2023,05:06:09,0.025,0.0,0.01,0.0
20/07/2023,05:07:09,0.026,0.0,0.01,0.0
20/07/2023,05:08:08,0.028,0.0,0.011,0.001
20/07/2023,05:09:08,0.028,0.0,0.011,0.0
20/07/2023,05:10:09,0.028,0.0,0.012,0.001
20/07/2023,05:11:09,0.029,0.0,0.012,0.0
20/07/2023,05:12:09,0.030,0.0,0.013,0.001
20/07/2023,05:13:08,0.032,0.0,0.013,0.0
20/07/2023,05:14:08,0.032,0.0,0.014,0.001
20/07/2023,05:15:09,0.033,0.0,0.014,0.0
20/07/2023,05:16:09,0.033,0.0,0.015,0.001
20/07/2023,05:17:08,0.035,0.0,0.016,0.001
20/07/2023,05:18:08,0.036,0.0,0.016,0.0
20/07/2023,05:19:09,0.035,0.0,0.017,0.001
20/07/2023,05:20:09,0.037,0.0,0.017,0.0
20/07/2023,05:21:08,0.040,0.0,0.018,0.001
20/07/2023,05:22:09,0.039,0.0,0.019,0.001
20/07/2023,05:23:09,0.041,0.0,0.019,0.0
20/07/2023,05:24:09,0.041,0.0,0.02,0.001
20/07/2023,05:25:08,0.042,0.0,0.021,0.001
20/07/2023,05:26:09,0.044,0.0,0.021,0.0
20/07/2023,05:27:09,0.044,0.0,0.022,0.001
20/07/2023,05:28:08,0.046,0.0,0.023,0.001
20/07/2023,05:29:09,0.048,0.0,0.024,0.001
20/07/2023,05:30:09,0.048,0.0,0.024,0.0
20/07/2023,05:31:09,0.049,0.0,0.025,0.001
20/07/2023,05:32:09,0.051,0.0,0.026,0.001
20/07/2023,05:33:09,0.051,0.0,0.027,0.001
20/07/2023,05:34:09,0.053,0.0,0.028,0.001
20/07/2023,05:35:09,0.054,0.0,0.029,0.001
20/07/2023,05:36:09,0.056,0.0,0.03,0.001
20/07/2023,05:37:08,0.057,0.0,0.031,0.001
20/07/2023,05:38:09,0.058,0.0,0.032,0.001
20/07/2023,05:39:09,0.060,0.0,0.033,0.001
20/07/2023,05:40:09,0.061,0.0,0.034,0.001
20/07/2023,05:41:09,0.063,0.0,0.035,0.001
20/07/2023,05:42:08,0.063,0.0,0.036,0.001
20/07/2023,05:43:09,0.066,0.0,0.037,0.001
20/07/2023,05:44:08,0.067,0.0,0.038,0.001
20/07/2023,05:45:09,0.067,0.0,0.039,0.001
20/07/2023,05:46:09,0.068,0.0,0.04,0.001
20/07/2023,05:47:08,0.070,0.0,0.041,0.001
20/07/2023,05:48:09,0.071,0.0,0.042,0.001
20/07/2023,05:49:08,0.073,0.0,0.044,0.002
20/07/2023,05:50:09,0.074,0.0,0.045,0.001
20/07/2023,05:51:08,0.077,0.0,0.046,0.001
20/07/2023,05:52:08,0.079,0.0,0.047,0.001
20/07/2023,05:53:08,0.080,0.0,0.049,0.002
20/07/2023,05:54:31,0.082,0.0,0.051,0.002
20/07/2023,05:56:09,0.085,0.0,0.053,0.002
20/07/2023,05:57:08,0.087,0.0,0.054,0.001
20/07/2023,05:58:11,0.090,0.0,0.056,0.002
20/07/2023,05:59:09,0.094,0.0,0.057,0.001
20/07/2023,06:00:09,0.096,0.0,0.059,0.002
20/07/2023,06:01:08,0.099,0.0,0.06,0.001
20/07/2023,06:02:09,0.101,0.0,0.062,0.002
20/07/2023,06:03:08,0.103,0.0,0.064,0.002
20/07/2023,06:04:09,0.105,0.0,0.066,0.002
20/07/2023,06:05:09,0.108,0.0,0.067,0.001
20/07/2023,06:06:08,0.109,0.0,0.069,0.002
20/07/2023,06:07:09,0.112,0.0,0.071,0.002
20/07/2023,06:08:09,0.114,0.0,0.073,0.002
20/07/2023,06:09:09,0.117,0.0,0.075,0.002
20/07/2023,06:10:09,0.118,0.0,0.077,0.002
20/07/2023,06:11:08,0.119,0.0,0.079,0.002
20/07/2023,06:12:09,0.123,0.0,0.081,0.002
20/07/2023,06:13:09,0.126,0.0,0.083,0.002
20/07/2023,06:14:09,0.128,0.0,0.085,0.002
20/07/2023,06:15:09,0.131,0.0,0.087,0.002
20/07/2023,06:16:08,0.132,0.0,0.089,0.002
20/07/2023,06:17:08,0.136,0.0,0.092,0.003
20/07/2023,06:18:09,0.139,0.0,0.094,0.002
20/07/2023,06:19:09,0.140,0.0,0.096,0.002
20/07/2023,06:20:08,0.144,0.0,0.099,0.003
20/07/2023,06:21:09,0.146,0.0,0.101,0.002
20/07/2023,06:22:09,0.150,0.0,0.103,0.002
20/07/2023,06:23:08,0.152,0.0,0.106,0.003
20/07/2023,06:24:09,0.154,0.0,0.109,0.003
20/07/2023,06:25:09,0.159,0.0,0.111,0.002
20/07/2023,06:26:08,0.161,0.0,0.114,0.003
20/07/2023,06:27:09,0.163,0.0,0.116,0.002
20/07/2023,06:28:09,0.167,0.0,0.119,0.003
20/07/2023,06:29:09,0.170,0.0,0.122,0.003
20/07/2023,06:30:09,0.173,0.0,0.125,0.003
20/07/2023,06:31:09,0.176,0.0,0.128,0.003
20/07/2023,06:32:08,0.179,0.0,0.131,0.003
20/07/2023,06:33:09,0.182,0.0,0.134,0.003
20/07/2023,06:34:08,0.186,0.0,0.137,0.003
20/07/2023,06:35:09,0.189,0.0,0.14,0.003
20/07/2023,06:36:09,0.193,0.0,0.143,0.003
20/07/2023,06:37:09,0.196,0.0,0.146,0.003
20/07/2023,06:38:08,0.199,0.0,0.15,0.004
20/07/2023,06:39:09,0.203,0.0,0.153,0.003
20/07/2023,06:40:09,0.207,0.0,0.156,0.003
20/07/2023,06:41:09,0.210,0.0,0.16,0.004
20/07/2023,06:42:09,0.214,0.0,0.164,0.004
20/07/2023,06:43:09,0.218,1.0,0.167,0.003
20/07/2023,06:44:09,0.220,1.0,0.171,0.004
20/07/2023,06:45:09,0.226,1.0,0.174,0.003
20/07/2023,06:46:09,0.229,1.0,0.178,0.004
20/07/2023,06:47:09,0.232,1.0,0.182,0.004
20/07/2023,06:48:09,0.235,1.0,0.186,0.004
20/07/2023,06:49:09,0.242,1.0,0.19,0.004
20/07/2023,06:50:09,0.244,1.0,0.194,0.004
20/07/2023,06:51:09,0.248,1.0,0.198,0.004
20/07/2023,06:52:09,0.254,1.0,0.202,0.004
20/07/2023,06:53:09,0.258,1.0,0.207,0.005
20/07/2023,06:54:09,0.262,1.0,0.211,0.004
20/07/2023,06:55:09,0.266,1.0,0.215,0.004
20/07/2023,06:56:09,0.270,1.0,0.22,0.005
20/07/2023,06:57:10,0.274,1.0,0.224,0.004
20/07/2023,06:58:09,0.278,1.0,0.229,0.005
20/07/2023,06:59:09,0.282,1.0,0.233,0.004
20/07/2023,07:00:09,0.287,1.0,0.238,0.005
20/07/2023,07:01:09,0.291,1.0,0.243,0.005
20/07/2023,07:02:08,0.296,1.0,0.248,0.005
20/07/2023,07:03:09,0.302,1.0,0.253,0.005
20/07/2023,07:04:09,0.305,1.0,0.258,0.005
20/07/2023,07:05:09,0.311,1.0,0.263,0.005
20/07/2023,07:06:09,0.315,1.0,0.268,0.005
20/07/2023,07:07:09,0.320,1.0,0.274,0.006
20/07/2023,07:08:09,0.325,1.0,0.279,0.005
20/07/2023,07:09:09,0.329,1.0,0.285,0.006
20/07/2023,07:10:09,0.334,1.0,0.29,0.005
20/07/2023,07:11:09,0.337,1.0,0.295,0.005
20/07/2023,07:12:09,0.342,1.0,0.301,0.006
20/07/2023,07:13:09,0.348,1.0,0.307,0.006
20/07/2023,07:14:08,0.354,1.0,0.313,0.006
20/07/2023,07:15:09,0.358,1.0,0.319,0.006
20/07/2023,07:16:08,0.363,1.0,0.325,0.006
20/07/2023,07:17:09,0.367,1.0,0.331,0.006
20/07/2023,07:18:08,0.372,1.0,0.337,0.006
20/07/2023,07:19:09,0.378,1.0,0.343,0.006
20/07/2023,07:20:09,0.383,1.0,0.35,0.007
20/07/2023,07:21:09,0.389,1.0,0.356,0.006
20/07/2023,07:22:09,0.395,1.0,0.363,0.007
20/07/2023,07:23:09,0.399,1.0,0.369,0.006
20/07/2023,07:24:08,0.406,1.0,0.376,0.007
20/07/2023,07:25:09,0.412,1.0,0.383,0.007
20/07/2023,07:26:08,0.416,1.0,0.39,0.007
20/07/2023,07:27:09,0.424,1.0,0.397,0.007
20/07/2023,07:28:09,0.428,1.0,0.404,0.007
20/07/2023,07:29:09,0.433,1.0,0.411,0.007
20/07/2023,07:30:09,0.441,1.0,0.418,0.007
20/07/2023,07:31:09,0.447,1.0,0.425,0.007
20/07/2023,07:32:09,0.452,1.0,0.433,0.008
20/07/2023,07:33:09,0.458,1.0,0.441,0.008
20/07/2023,07:34:09,0.463,1.0,0.448,0.007
20/07/2023,07:35:09,0.469,1.0,0.456,0.008
20/07/2023,07:36:09,0.476,1.0,0.464,0.008
20/07/2023,07:37:09,0.481,1.0,0.472,0.008
20/07/2023,07:38:09,0.489,1.0,0.48,0.008
20/07/2023,07:39:08,0.495,1.0,0.488,0.008
20/07/2023,07:40:09,0.270,1.0,0.496,0.008
20/07/2023,07:41:09,0.312,1.0,0.501,0.005
20/07/2023,07:42:09,0.315,1.0,0.507,0.006
20/07/2023,07:43:09,0.515,1.0,0.512,0.005
20/07/2023,07:44:09,0.524,1.0,0.52,0.008
20/07/2023,07:45:08,0.527,1.0,0.529,0.009
20/07/2023,07:46:09,0.536,1.0,0.538,0.009
20/07/2023,07:47:09,0.542,1.0,0.547,0.009
20/07/2023,07:48:09,0.551,1.0,0.557,0.01
20/07/2023,07:49:09,0.557,1.0,0.565,0.008
20/07/2023,07:50:09,0.563,1.0,0.575,0.01
20/07/2023,07:51:09,0.571,1.0,0.584,0.009
20/07/2023,07:52:09,0.577,1.0,0.594,0.01
20/07/2023,07:53:09,0.586,1.0,0.604,0.01
20/07/2023,07:54:09,0.592,1.0,0.614,0.01
20/07/2023,07:55:09,0.599,1.0,0.623,0.009
20/07/2023,07:56:12,0.608,1.0,0.634,0.011
20/07/2023,07:57:09,0.617,1.0,0.644,0.01
20/07/2023,07:58:08,0.620,1.0,0.654,0.01
20/07/2023,07:59:09,0.628,1.0,0.664,0.01
20/07/2023,08:00:09,0.637,1.0,0.675,0.011
20/07/2023,08:01:09,0.646,1.0,0.686,0.011
20/07/2023,08:02:09,0.648,1.0,0.696,0.01
20/07/2023,08:03:09,0.656,2.0,0.707,0.011
20/07/2023,08:04:09,0.662,2.0,0.718,0.011
20/07/2023,08:05:09,0.667,2.0,0.73,0.012
20/07/2023,08:06:09,0.674,2.0,0.74,0.01
20/07/2023,08:07:09,0.684,2.0,0.752,0.012
20/07/2023,08:08:09,0.694,2.0,0.763,0.011
20/07/2023,08:09:09,0.699,2.0,0.775,0.012
20/07/2023,08:10:09,0.708,2.0,0.787,0.012
20/07/2023,08:11:09,0.712,2.0,0.798,0.011
20/07/2023,08:12:09,0.719,2.0,0.81,0.012
20/07/2023,08:13:09,0.727,2.0,0.823,0.013
20/07/2023,08:14:09,0.736,2.0,0.834,0.011
20/07/2023,08:15:09,0.743,2.0,0.847,0.013
20/07/2023,08:16:09,0.754,2.0,0.859,0.012
20/07/2023,08:17:09,0.758,2.0,0.872,0.013
20/07/2023,08:18:09,0.774,2.0,0.885,0.013
20/07/2023,08:19:08,0.783,2.0,0.898,0.013
20/07/2023,08:20:09,0.788,2.0,0.911,0.013
20/07/2023,08:21:09,0.790,2.0,0.924,0.013
20/07/2023,08:22:09,0.790,2.0,0.938,0.014
20/07/2023,08:23:10,0.785,2.0,0.951,0.013
20/07/2023,08:24:09,0.785,2.0,0.963,0.012
20/07/2023,08:25:09,0.793,2.0,0.977,0.014
20/07/2023,08:26:09,0.816,2.0,0.991,0.014
20/07/2023,08:27:09,0.852,2.0,1.004,0.013
20/07/2023,08:28:09,0.875,2.0,1.018,0.014
20/07/2023,08:29:09,0.855,2.0,1.033,0.015
20/07/2023,08:30:09,0.854,2.0,1.047,0.014
20/07/2023,08:31:09,0.842,2.0,1.061,0.014
20/07/2023,08:32:09,0.884,2.0,1.076,0.015
20/07/2023,08:33:09,0.845,2.0,1.09,0.014
20/07/2023,08:34:09,0.876,2.0,1.104,0.014
20/07/2023,08:35:09,0.877,2.0,1.119,0.015
20/07/2023,08:36:09,0.898,2.0,1.134,0.015
20/07/2023,08:37:09,0.887,2.0,1.149,0.015
20/07/2023,08:38:09,0.893,2.0,1.163,0.014
20/07/2023,08:39:09,0.881,2.0,1.179,0.016
20/07/2023,08:40:09,0.928,2.0,1.194,0.015
20/07/2023,08:41:09,0.882,2.0,1.208,0.014
20/07/2023,08:42:09,0.909,2.0,1.223,0.015
20/07/2023,08:43:09,0.880,2.0,1.238,0.015
20/07/2023,08:44:09,0.898,2.0,1.253,0.015
20/07/2023,08:45:09,0.885,2.0,1.267,0.014
20/07/2023,08:46:09,0.957,2.0,1.283,0.016
20/07/2023,08:47:09,0.926,2.0,1.299,0.016
20/07/2023,08:48:09,0.951,2.0,1.314,0.015
20/07/2023,08:49:09,0.906,2.0,1.33,0.016
20/07/2023,08:50:09,1.065,2.0,1.346,0.016
20/07/2023,08:51:09,1.055,2.0,1.364,0.018
20/07/2023,08:52:09,1.074,2.0,1.381,0.017
20/07/2023,08:53:09,1.063,2.0,1.399,0.018
20/07/2023,08:54:09,1.040,2.0,1.418,0.019
20/07/2023,08:55:09,1.024,2.0,1.434,0.016
20/07/2023,08:56:09,1.020,2.0,1.452,0.018
20/07/2023,08:57:10,1.055,2.0,1.469,0.017
20/07/2023,08:58:09,1.037,2.0,1.486,0.017
20/07/2023,08:59:09,0.963,2.0,1.501,0.015
20/07/2023,09:00:10,1.101,3.0,1.519,0.018
20/07/2023,09:01:09,1.033,2.0,1.537,0.018
20/07/2023,09:02:09,0.945,2.0,1.552,0.015
20/07/2023,09:03:09,1.046,2.0,1.569,0.017
20/07/2023,09:04:09,1.008,2.0,1.586,0.017
20/07/2023,09:05:09,0.980,2.0,1.603,0.017
20/07/2023,09:06:09,0.937,2.0,1.619,0.016
20/07/2023,09:07:09,1.016,2.0,1.635,0.016
20/07/2023,09:08:09,1.003,2.0,1.653,0.018
20/07/2023,09:09:09,0.984,2.0,1.67,0.017
20/07/2023,09:10:09,0.944,2.0,1.685,0.015
20/07/2023,09:11:09,1.066,2.0,1.702,0.017
20/07/2023,09:12:09,1.055,2.0,1.719,0.017
20/07/2023,09:13:09,1.147,3.0,1.737,0.018
20/07/2023,09:14:09,1.295,3.0,1.758,0.021
20/07/2023,09:15:09,1.126,3.0,1.777,0.019
20/07/2023,09:16:09,1.159,3.0,1.797,0.02
20/07/2023,09:17:09,1.298,3.0,1.818,0.021
20/07/2023,09:18:09,1.241,3.0,1.84,0.022
20/07/2023,09:19:09,1.189,3.0,1.86,0.02
20/07/2023,09:20:09,1.189,3.0,1.882,0.022
20/07/2023,09:21:09,1.226,3.0,1.901,0.019
20/07/2023,09:22:09,1.292,3.0,1.922,0.021
20/07/2023,09:23:09,1.233,3.0,1.945,0.023
20/07/2023,09:24:11,1.185,3.0,1.965,0.02
20/07/2023,09:25:09,1.374,3.0,1.986,0.021
20/07/2023,09:26:09,1.292,3.0,2.008,0.022
20/07/2023,09:27:09,1.236,3.0,2.029,0.021
20/07/2023,09:28:09,1.330,3.0,2.05,0.021
20/07/2023,09:29:09,1.355,3.0,2.073,0.023
20/07/2023,09:30:09,1.369,3.0,2.096,0.023
20/07/2023,09:31:09,1.375,3.0,2.119,0.023
20/07/2023,09:32:09,1.389,3.0,2.142,0.023
20/07/2023,09:33:09,1.392,3.0,2.166,0.024
20/07/2023,09:34:09,1.430,3.0,2.19,0.024
20/07/2023,09:35:09,1.396,3.0,2.213,0.023
20/07/2023,09:36:09,1.324,3.0,2.237,0.024
20/07/2023,09:37:09,1.216,3.0,2.259,0.022
20/07/2023,09:38:09,1.259,3.0,2.279,0.02
20/07/2023,09:39:09,1.467,3.0,2.303,0.024
20/07/2023,09:40:09,1.434,3.0,2.325,0.022
20/07/2023,09:41:09,1.379,3.0,2.348,0.023
20/07/2023,09:42:09,1.329,3.0,2.371,0.023
20/07/2023,09:43:09,1.460,3.0,2.395,0.024
20/07/2023,09:44:09,1.478,3.0,2.42,0.025
20/07/2023,09:45:09,1.490,3.0,2.443,0.023
20/07/2023,09:46:09,1.496,3.0,2.469,0.026
20/07/2023,09:47:09,1.512,3.0,2.493,0.024
20/07/2023,09:48:09,1.503,3.0,2.519,0.026
20/07/2023,09:49:09,1.521,3.0,2.543,0.024
20/07/2023,09:50:09,1.207,3.0,2.566,0.023
20/07/2023,09:51:09,1.571,4.0,2.592,0.026
20/07/2023,09:52:09,1.586,4.0,2.618,0.026
20/07/2023,09:53:10,1.565,4.0,2.645,0.027
20/07/2023,09:54:09,1.539,4.0,2.67,0.025
20/07/2023,09:55:09,1.565,4.0,2.696,0.026
20/07/2023,09:56:09,1.607,4.0,2.724,0.028
20/07/2023,09:57:10,1.631,4.0,2.751,0.027